User: anonymous   Login
Location: Pcim
(49.7500°N, 19.9670°E)
Time: 07:22:48
(UTC+02:00)
Language:

CUTE 1.7 + AOD 2 - Orbit

View from above orbital plane
View from above orbital plane
View from above satellite
View from above satellite

Ground track
Ground track

The orbit data is extracted from the following two-line orbital elements,

1 32785U 08021C   24106.42404648  .00007512  00000-0  67839-3 0  9992
2 32785  97.7494  72.3417 0011482 166.9164 193.2357 14.95727807866099
Epoch (UTC): 15 April 2024 10:10:37
Eccentricity: 0.0011482
inclination: 97.7494°
perigee height: 572 km
apogee height: 588 km
right ascension of ascending node: 72.3417°
argument of perigee: 166.9164°
revolutions per day: 14.95727807
mean anomaly at epoch: 193.2357°
orbit number at epoch: 86609

The dashed part of the orbit path shows where the satellite is in the earth's shadow,  

DLR